STARLINK-5073 (55427 NORAD) Tracking and Keplerian Element Data

This shows tracking and keplerian element data for the satellite.

Feedback or suggestion? Click here.




ElementValue
Catalog55427
NameSTARLINK-5073
Epoch Orbit1517
Epoch Day127.25001157
Epoch Year2023
RAAN182.1879
Inclination69.9987
Eccentricity0.0003459
Argument of Perigee269.3117
Mean Anonmoly108.0937
Mean Motion15.41167354
Decay Rate-0.00963906
L11 55427U 23014AN 23127.25001157 -.00963906 00000+0 -25336-1 0 9993
L22 55427 69.9987 182.1879 0003459 269.3117 108.0937 15.41167354 15178



Live tracking and technical data element details for STARLINK-5073 (NORAD 55427). STARLINK-5073 can be tracked NOW for your location showing map with azimuth and elevation plus other details from your city location.







IsCatalogInMostPopularTable: catalog: 55427, numindb: 2
Update: records affected: 1



GetName: 55427 STARLINK-5073

Hit Count: updated at: Mon, 05 Jun 2023 19:42:45 GMT